Huntington, WV

6:22 AM EST on December 11, 2019 (GMT -0500)
Tri-State / Ferguson

Weather History for KHTS - October, 2019

Change the Weather History Date:

Thursday, October 24, 2019

  Actual Average Record
Temperature  
Mean Temperature 54 °F 54 °F  
Max Temperature 72 °F 66 °F 84 °F (1991)
Min Temperature 36 °F 43 °F 24 °F (1964)
Degree Days  
Heating Degree Days 11 11  
Month to date heating degree days 135 195  
Since 1 July heating degree days 135 253  
Cooling Degree Days 0 0  
Month to date cooling degree days 66 16  
Year to date cooling degree days 1511 1127  
Growing Degree Days 4 (Base 50)    
Moisture  
Dew Point 37 °F    
Average Humidity 60    
Maximum Humidity 92    
Minimum Humidity 28    
Precipitation  
Precipitation 0.00 in 0.09 in 0.88 in (1923)
Month to date precipitation 3.84 2.12  
Year to date precipitation 38.31 35.15  
Snow  
Snow 0.00 in 0.00 in 1.00 in (1917)
Month to date snowfall 0.0 0.0  
Since 1 September snowfall 0.0 0.0  
Snow Depth 0.00 in    
Sea Level Pressure  
Sea Level Pressure 30.25 in    
Wind  
Wind Speed 3 mph (SE)    
Max Wind Speed 9 mph    
Max Gust Speed 13 mph    
Visibility 10 miles    
Events      
T = Trace of Precipitation, MM = Missing Value Source: NWS Daily Summary

Daily Weather History Graph

Daily Weather History Graph

Search for Another Location

Airport or City:

Astronomy

Oct. 24, 2019 Rise Set
Actual Time 7:47 AM EDT 6:40 PM EDT
Civil Twilight 7:20 AM EDT 7:07 PM EDT
Nautical Twilight 6:49 AM EDT 7:38 PM EDT
Astronomical Twilight 6:19 AM EDT 8:08 PM EDT
Moon 3:21 AM EDT (10/24) 5:02 PM EDT (10/24)
Length of Visible Light 11h 46m
Length of Day
10h 52m
Waning Crescent, 17% of the Moon is Illuminated
Oct 24
Waning Crescent
Oct 27
New
Nov 4
First Quarter
Nov 12
Full
Nov 19
Last Quarter

Hourly Weather History & Observations

Time (EDT) Temp. Windchill Dew Point Humidity Pressure Visibility Wind Dir Wind Speed Gust Speed Precip Events Conditions
12:51 AM 42.1 °F - 36.0 °F 79% 30.22 in 10.0 mi Calm Calm - N/A   Clear
1:51 AM 39.9 °F 36.7 °F 37.0 °F 89% 30.22 in 10.0 mi ESE 4.6 mph - N/A   Clear
2:51 AM 39.9 °F 37.8 °F 36.0 °F 86% 30.21 in 10.0 mi East 3.5 mph - N/A   Clear
3:51 AM 39.9 °F 37.8 °F 35.1 °F 83% 30.20 in 10.0 mi SSW 3.5 mph - N/A   Clear
4:51 AM 41.0 °F - 36.0 °F 82% 30.22 in 10.0 mi Calm Calm - N/A   Clear
5:51 AM 42.1 °F - 37.0 °F 82% 30.25 in 10.0 mi Calm Calm - N/A   Clear
6:51 AM 37.0 °F 34.5 °F 35.1 °F 93% 30.26 in 10.0 mi SSE 3.5 mph - N/A   Clear
7:51 AM 37.0 °F 34.5 °F 35.1 °F 93% 30.27 in 10.0 mi ESE 3.5 mph - N/A   Clear
8:51 AM 42.1 °F - 37.9 °F 85% 30.28 in 10.0 mi Calm Calm - N/A   Clear
9:51 AM 46.9 °F - 37.9 °F 71% 30.30 in 10.0 mi SSW 5.8 mph - N/A   Clear
10:51 AM 55.0 °F - 37.9 °F 53% 30.29 in 10.0 mi South 6.9 mph - N/A   Clear
11:51 AM 60.1 °F - 37.9 °F 44% 30.29 in 10.0 mi Variable 4.6 mph - N/A   Clear
12:51 PM 64.9 °F - 37.9 °F 37% 30.28 in 10.0 mi Variable 5.8 mph - N/A   Clear
1:51 PM 68.0 °F - 37.0 °F 32% 30.25 in 10.0 mi Variable 4.6 mph - N/A   Clear
2:51 PM 70.0 °F - 36.0 °F 29% 30.22 in 10.0 mi Variable 4.6 mph - N/A   Clear
3:51 PM 70.0 °F - 35.1 °F 28% 30.22 in 10.0 mi Calm Calm - N/A   Clear
5:51 PM 68.0 °F - 35.1 °F 30% 30.21 in 10.0 mi SE 4.6 mph - N/A   Clear
6:51 PM 64.0 °F - 34.0 °F 33% 30.22 in 10.0 mi East 3.5 mph - N/A   Clear
7:51 PM 59.0 °F - 37.0 °F 44% 30.24 in 10.0 mi East 3.5 mph - N/A   Clear
8:51 PM 54.0 °F - 39.9 °F 59% 30.26 in 10.0 mi Calm Calm - N/A   Clear
9:51 PM 51.1 °F - 39.0 °F 63% 30.26 in 10.0 mi East 3.5 mph - N/A   Clear
10:51 PM 48.0 °F - 39.9 °F 74% 30.26 in 10.0 mi Calm Calm - N/A   Clear
11:51 PM 46.9 °F - 39.9 °F 77% 30.25 in 10.0 mi Calm Calm - N/A   Clear